Location: Church Tower
(37.7144°N, 119.6316°W)
Time: 20:37:58
(UTC+00:00)

Aureole 3 Rocket - Pass Details

Date: 15 November 2025
Orbit: 398 x 1690 km, 82.5° (Epoch: 08 December)

Event Time Altitude Azimuth Distance (km) Brightness Sun altitude
Rises 13:13:45 0° 352° (N) 3,227 6.5 -16.9°
Reaches altitude 10° 13:15:48 10° 352° (N) 2,452 5.9 -16.5°
Maximum altitude 13:21:27 87° 265° (W) 1,057 4.1 -15.4°
Drops below altitude 10° 13:29:21 10° 176° (S) 3,366 7.0 -13.9°
Sets 13:32:33 0° 176° (S) 4,508 7.7 -13.3°
